sat.trackr.live / text

‹ back to catalog

ONEWEB-0360

NORAD 49286 · 2021-090H

PAYLOAD ACTIVE UNKNOWN

§ Identity

Operator
Country
UK
Launch date
2021-10-14
Launch site
VOSTO
Launch vehicle
Mass (kg)
RCS (m²)

Purposes: comms

External: N2YO · Heavens-Above · Gunter

§ Orbital elements

Epoch: 2026-09-15T16:43:18.409440Z

Period
109.03 min
Inclination
87.9137°
Eccentricity
0.0001869
Mean motion
13.20772664 rev/d
Perigee alt
1,180.4 km
Apogee alt
1,183.2 km
Semi-major
7,559.9 km
B*
1.6420e-4
RAAN
256.3854°
Arg perigee
88.4849°
Mean anomaly
271.6499°
Rev number
24,179

§ Raw data

ONEWEB-03601 49286U 21090H   26258.69674085  .00000080  00000+0  16420-3 0  99922 49286  87.9137 256.3854 0001869  88.4849 271.6499 13.20772664241793

JSON: /api/v1/satellites/49286 · /tle

For live sub-satellite position, see the globe view (requires WebGL).

§ Visibility from observer

Set your observer location to see the next 7 days of passes ≥ 10°. The values pass through the URL so the page stays shareable.

No JS? Fill the form by hand. The geolocation button needs JavaScript.